User: anonymous   Login
Location: Parc des �les de St-Timoth�e
(45.2924°N, 74.0481°W)
Time: 19:22:26
(UTC-04:00)
Language:

Cosmos 2173 Rocket - Orbit

View from above orbital plane
View from above orbital plane
View from above satellite
View from above satellite

Ground track
Ground track

The orbit data is extracted from the following two-line orbital elements,

1 21797U 91081B   16239.66444050  .00000003  00000-0 -11995-4 0  9998
2 21797  82.9519 280.9017 0037818 191.5987 284.5091 13.77381712243857
Epoch (UTC): 26 August 2016 15:56:47
Eccentricity: 0.0037818
inclination: 82.9519°
perigee height: 945 km
apogee height: 1001 km
right ascension of ascending node: 280.9017°
argument of perigee: 191.5987°
revolutions per day: 13.77381712
mean anomaly at epoch: 284.5091°
orbit number at epoch: 24385

The dashed part of the orbit path shows where the satellite is in the earth's shadow,  

DLR